Back to catalog

STARLINK-31671

AliveCommunicationsVLEO
NORAD 59516·PAYLOAD·🇺🇸 United States

Launched Apr 17, 2024 from Cape Canaveral Space Force Station

Loading…

Next Passes (next 24 hours)

TLE

FreshSource: CelesTrak SupGP

Epoch: Sep 14, 2026, 20:52 UTC

1 59516C 24073F   26257.86993056 -.00018700  00000+0 -67742-3 0  2573
2 59516  43.0034 329.8596 0001496 273.6887 155.7466 15.27583235    11

Track STARLINK-31671 in real time with AllMySat

Download on the App Store